Time,TemperatureF,DewpointF,PressureIn,WindDirection,WindDirectionDegrees,WindSpeedMPH,WindSpeedGustMPH,Humidity,HourlyPrecipIn,Conditions,Clouds,dailyrainin,SoftwareType,DateUTC
2013-08-04 00:04:00,64.1,52.5,30.18,NNE,28,0.0,0.0,66,0.00,,,0.00,VWS V14.01,2013-08-04 05:04:00,
2013-08-04 00:09:00,64.0,52.8,30.18,NNE,28,0.0,0.0,67,0.00,,,0.00,VWS V14.01,2013-08-04 05:09:00,
2013-08-04 00:14:00,63.8,52.7,30.18,NNE,28,0.0,0.0,67,0.00,,,0.00,VWS V14.01,2013-08-04 05:14:00,
2013-08-04 00:19:00,63.7,52.5,30.18,NNE,28,0.0,0.0,67,0.00,,,0.00,VWS V14.01,2013-08-04 05:19:00,
2013-08-04 00:24:00,63.6,52.5,30.18,NNE,28,0.0,0.0,67,0.00,,,0.00,VWS V14.01,2013-08-04 05:24:00,
2013-08-04 00:29:00,63.5,53.2,30.19,NNE,28,0.0,0.0,69,0.00,,,0.00,VWS V14.01,2013-08-04 05:29:00,
2013-08-04 00:34:00,63.3,53.0,30.18,NNE,28,0.0,0.0,69,0.00,,,0.00,VWS V14.01,2013-08-04 05:34:00,
2013-08-04 00:39:00,63.1,52.0,30.18,NNE,28,0.0,0.0,67,0.00,,,0.00,VWS V14.01,2013-08-04 05:39:00,
2013-08-04 00:44:00,63.0,52.7,30.18,NNE,28,0.0,0.0,69,0.00,,,0.00,VWS V14.01,2013-08-04 05:44:00,
2013-08-04 00:49:00,63.0,52.3,30.19,NNE,28,0.0,1.0,68,0.00,,,0.00,VWS V14.01,2013-08-04 05:49:00,
2013-08-04 00:54:00,62.9,52.2,30.19,NNE,28,0.0,1.0,68,0.00,,,0.00,VWS V14.01,2013-08-04 05:54:00,
2013-08-04 00:59:00,62.8,52.5,30.18,NNE,28,0.0,0.0,69,0.00,,,0.00,VWS V14.01,2013-08-04 05:59:00,
2013-08-04 01:04:00,62.7,52.4,30.19,NNE,28,0.0,0.0,69,0.00,,,0.00,VWS V14.01,2013-08-04 06:04:00,
2013-08-04 01:10:00,62.6,52.3,30.20,NNE,28,0.0,1.0,69,0.00,,,0.00,VWS V14.01,2013-08-04 06:10:00,
2013-08-04 01:15:00,62.5,52.6,30.20,NNE,28,0.0,0.0,70,0.00,,,0.00,VWS V14.01,2013-08-04 06:15:00,
2013-08-04 01:20:00,62.3,52.4,30.20,NNE,28,0.0,0.0,70,0.00,,,0.00,VWS V14.01,2013-08-04 06:20:00,
2013-08-04 01:25:00,62.1,52.6,30.20,NNE,28,0.0,0.0,71,0.00,,,0.00,VWS V14.01,2013-08-04 06:25:00,
2013-08-04 01:30:00,62.0,52.5,30.20,NNE,28,0.0,0.0,71,0.00,,,0.00,VWS V14.01,2013-08-04 06:30:00,
2013-08-04 01:35:00,61.8,52.3,30.20,NNE,28,0.0,0.0,71,0.00,,,0.00,VWS V14.01,2013-08-04 06:35:00,
2013-08-04 01:40:00,61.8,52.3,30.20,NNE,28,0.0,0.0,71,0.00,,,0.00,VWS V14.01,2013-08-04 06:40:00,
2013-08-04 01:45:00,61.7,52.2,30.20,NNE,28,0.0,0.0,71,0.00,,,0.00,VWS V14.01,2013-08-04 06:45:00,
2013-08-04 01:50:00,61.6,52.9,30.20,NNE,28,0.0,0.0,73,0.00,,,0.00,VWS V14.01,2013-08-04 06:50:00,
2013-08-04 01:56:00,61.4,52.7,30.20,NNE,28,0.0,0.0,73,0.00,,,0.00,VWS V14.01,2013-08-04 06:56:00,
2013-08-04 02:01:00,61.2,52.5,30.20,NNE,28,0.0,0.0,73,0.00,,,0.00,VWS V14.01,2013-08-04 07:01:00,
2013-08-04 02:06:00,61.0,52.3,30.20,NNE,28,0.0,0.0,73,0.00,,,0.00,VWS V14.01,2013-08-04 07:06:00,
2013-08-04 02:11:00,60.8,52.5,30.20,NNE,28,0.0,0.0,74,0.00,,,0.00,VWS V14.01,2013-08-04 07:11:00,
2013-08-04 02:16:00,60.6,52.3,30.20,NNE,28,0.0,0.0,74,0.00,,,0.00,VWS V14.01,2013-08-04 07:16:00,
2013-08-04 02:21:00,60.4,52.5,30.20,NNE,28,0.0,0.0,75,0.00,,,0.00,VWS V14.01,2013-08-04 07:21:00,
2013-08-04 02:26:00,60.2,52.6,30.20,NNE,28,0.0,0.0,76,0.00,,,0.00,VWS V14.01,2013-08-04 07:26:00,
2013-08-04 02:31:00,60.1,52.2,30.19,NNE,28,0.0,0.0,75,0.00,,,0.00,VWS V14.01,2013-08-04 07:31:00,
2013-08-04 02:36:00,60.2,52.3,30.19,NNE,28,0.0,0.0,75,0.00,,,0.00,VWS V14.01,2013-08-04 07:36:00,
2013-08-04 02:42:00,60.3,52.3,30.19,NNE,28,0.0,0.0,75,0.00,,,0.00,VWS V14.01,2013-08-04 07:42:00,
2013-08-04 02:47:00,60.4,52.5,30.20,NNE,28,0.0,0.0,75,0.00,,,0.00,VWS V14.01,2013-08-04 07:47:00,
2013-08-04 02:52:00,60.4,52.1,30.19,NNE,28,0.0,0.0,74,0.00,,,0.00,VWS V14.01,2013-08-04 07:52:00,
2013-08-04 02:57:00,60.3,52.3,30.19,NNE,28,0.0,0.0,75,0.00,,,0.00,VWS V14.01,2013-08-04 07:57:00,
2013-08-04 03:03:00,60.2,52.3,30.19,NNE,28,0.0,0.0,75,0.00,,,0.00,VWS V14.01,2013-08-04 08:03:00,
2013-08-04 03:07:00,60.0,52.1,30.19,NNE,28,0.0,0.0,75,0.00,,,0.00,VWS V14.01,2013-08-04 08:07:00,
2013-08-04 03:13:00,59.9,52.0,30.19,NNE,28,0.0,0.0,75,0.00,,,0.00,VWS V14.01,2013-08-04 08:13:00,
2013-08-04 03:18:00,59.9,52.0,30.19,NNE,28,0.0,0.0,75,0.00,,,0.00,VWS V14.01,2013-08-04 08:18:00,
2013-08-04 03:23:00,59.9,52.0,30.18,NNE,28,0.0,1.0,75,0.00,,,0.00,VWS V14.01,2013-08-04 08:23:00,
2013-08-04 03:28:00,60.0,52.1,30.18,NNE,28,0.0,1.0,75,0.00,,,0.00,VWS V14.01,2013-08-04 08:28:00,
2013-08-04 03:33:00,60.0,52.1,30.18,NNE,28,0.0,1.0,75,0.00,,,0.00,VWS V14.01,2013-08-04 08:33:00,
2013-08-04 03:38:00,59.9,52.3,30.17,NNE,28,0.0,1.0,76,0.00,,,0.00,VWS V14.01,2013-08-04 08:38:00,
2013-08-04 03:43:00,59.8,52.2,30.17,NNE,28,0.0,1.0,76,0.00,,,0.00,VWS V14.01,2013-08-04 08:43:00,
2013-08-04 03:49:00,59.7,52.1,30.17,NNE,28,0.0,0.0,76,0.00,,,0.00,VWS V14.01,2013-08-04 08:49:00,
2013-08-04 03:54:00,59.6,52.4,30.17,NNE,28,1.0,1.0,77,0.00,,,0.00,VWS V14.01,2013-08-04 08:54:00,
2013-08-04 03:59:00,59.4,52.2,30.17,NNE,28,0.0,0.0,77,0.00,,,0.00,VWS V14.01,2013-08-04 08:59:00,
2013-08-04 04:04:00,59.4,52.2,30.17,NNE,28,0.0,0.0,77,0.00,,,0.00,VWS V14.01,2013-08-04 09:04:00,
2013-08-04 04:09:00,59.2,52.0,30.17,NNE,28,0.0,1.0,77,0.00,,,0.00,VWS V14.01,2013-08-04 09:09:00,
2013-08-04 04:14:00,59.1,51.9,30.17,NNE,28,0.0,0.0,77,0.00,,,0.00,VWS V14.01,2013-08-04 09:14:00,
2013-08-04 04:19:00,58.9,52.1,30.16,NNE,28,0.0,1.0,78,0.00,,,0.00,VWS V14.01,2013-08-04 09:19:00,
2013-08-04 04:24:00,58.6,52.1,30.16,NNE,28,1.0,1.0,79,0.00,,,0.00,VWS V14.01,2013-08-04 09:24:00,
2013-08-04 04:29:00,58.4,51.9,30.16,NNE,28,0.0,0.0,79,0.00,,,0.00,VWS V14.01,2013-08-04 09:29:00,
2013-08-04 04:34:00,58.4,51.9,30.16,ENE,68,0.0,2.0,79,0.00,,,0.00,VWS V14.01,2013-08-04 09:34:00,
2013-08-04 04:40:00,58.5,52.0,30.16,ENE,67,0.0,2.0,79,0.00,,,0.00,VWS V14.01,2013-08-04 09:40:00,
2013-08-04 04:44:00,58.4,52.3,30.16,ENE,67,1.0,1.0,80,0.00,,,0.00,VWS V14.01,2013-08-04 09:44:00,
2013-08-04 04:50:00,58.2,52.4,30.16,ENE,68,0.0,1.0,81,0.00,,,0.00,VWS V14.01,2013-08-04 09:50:00,
2013-08-04 04:55:00,58.1,52.3,30.16,ENE,68,0.0,1.0,81,0.00,,,0.00,VWS V14.01,2013-08-04 09:55:00,
2013-08-04 05:00:00,58.0,52.2,30.16,ENE,65,0.0,1.0,81,0.00,,,0.00,VWS V14.01,2013-08-04 10:00:00,
2013-08-04 05:05:00,57.8,52.3,30.16,ENE,65,0.0,1.0,82,0.00,,,0.00,VWS V14.01,2013-08-04 10:05:00,
2013-08-04 05:10:00,57.7,52.2,30.15,ENE,66,0.0,1.0,82,0.00,,,0.00,VWS V14.01,2013-08-04 10:10:00,
2013-08-04 05:15:00,57.6,52.2,30.16,ENE,65,0.0,1.0,82,0.00,,,0.00,VWS V14.01,2013-08-04 10:15:00,
2013-08-04 05:21:00,57.6,52.2,30.16,ENE,65,0.0,1.0,82,0.00,,,0.00,VWS V14.01,2013-08-04 10:21:00,
2013-08-04 05:26:00,57.5,52.1,30.17,ENE,65,0.0,1.0,82,0.00,,,0.00,VWS V14.01,2013-08-04 10:26:00,
2013-08-04 05:31:00,57.5,52.4,30.17,ENE,65,0.0,0.0,83,0.00,,,0.00,VWS V14.01,2013-08-04 10:31:00,
2013-08-04 05:36:00,57.4,52.3,30.17,ENE,65,0.0,0.0,83,0.00,,,0.00,VWS V14.01,2013-08-04 10:36:00,
2013-08-04 05:41:00,57.3,52.2,30.17,ENE,65,0.0,0.0,83,0.00,,,0.00,VWS V14.01,2013-08-04 10:41:00,
2013-08-04 05:46:00,57.1,52.0,30.17,ENE,65,0.0,0.0,83,0.00,,,0.00,VWS V14.01,2013-08-04 10:46:00,
2013-08-04 05:52:00,57.0,52.2,30.17,ENE,65,0.0,0.0,84,0.00,,,0.00,VWS V14.01,2013-08-04 10:52:00,
2013-08-04 05:57:00,56.9,52.1,30.18,ENE,65,0.0,1.0,84,0.00,,,0.00,VWS V14.01,2013-08-04 10:57:00,
2013-08-04 06:01:00,56.9,52.4,30.18,ENE,65,0.0,0.0,85,0.00,,,0.00,VWS V14.01,2013-08-04 11:01:00,
2013-08-04 06:07:00,56.8,52.3,30.18,ENE,65,0.0,0.0,85,0.00,,,0.00,VWS V14.01,2013-08-04 11:07:00,
2013-08-04 06:12:00,56.7,52.2,30.18,ENE,65,0.0,0.0,85,0.00,,,0.00,VWS V14.01,2013-08-04 11:12:00,
2013-08-04 06:17:00,56.7,52.6,30.18,ENE,65,0.0,0.0,86,0.00,,,0.00,VWS V14.01,2013-08-04 11:17:00,
2013-08-04 06:22:00,56.7,52.6,30.18,ENE,65,0.0,0.0,86,0.00,,,0.00,VWS V14.01,2013-08-04 11:22:00,
2013-08-04 06:27:00,56.6,52.5,30.18,ENE,65,0.0,0.0,86,0.00,,,0.00,VWS V14.01,2013-08-04 11:27:00,
2013-08-04 06:32:00,56.6,52.5,30.18,ENE,65,0.0,1.0,86,0.00,,,0.00,VWS V14.01,2013-08-04 11:32:00,
2013-08-04 06:37:00,56.7,52.6,30.18,ENE,65,0.0,1.0,86,0.00,,,0.00,VWS V14.01,2013-08-04 11:37:00,
2013-08-04 06:42:00,57.1,53.0,30.18,ENE,65,0.0,1.0,86,0.00,,,0.00,VWS V14.01,2013-08-04 11:42:00,
2013-08-04 06:47:00,57.3,52.8,30.17,ENE,65,0.0,1.0,85,0.00,,,0.00,VWS V14.01,2013-08-04 11:47:00,
2013-08-04 06:52:00,57.3,53.2,30.17,NE,55,0.0,3.0,86,0.00,,,0.00,VWS V14.01,2013-08-04 11:52:00,
2013-08-04 06:58:00,57.2,53.1,30.17,NE,56,0.0,3.0,86,0.00,,,0.00,VWS V14.01,2013-08-04 11:58:00,
2013-08-04 07:03:00,57.1,53.0,30.17,ENE,60,0.0,1.0,86,0.00,,,0.00,VWS V14.01,2013-08-04 12:03:00,
2013-08-04 07:08:00,57.2,53.1,30.18,NE,54,2.0,3.0,86,0.00,,,0.00,VWS V14.01,2013-08-04 12:08:00,
2013-08-04 07:13:00,57.5,53.0,30.18,ENE,59,0.0,3.0,85,0.00,,,0.00,VWS V14.01,2013-08-04 12:13:00,
2013-08-04 07:18:00,57.7,53.2,30.18,ENE,59,0.0,1.0,85,0.00,,,0.00,VWS V14.01,2013-08-04 12:18:00,
2013-08-04 07:23:00,57.9,53.4,30.18,ENE,59,0.0,1.0,85,0.00,,,0.00,VWS V14.01,2013-08-04 12:23:00,
2013-08-04 07:28:00,58.2,53.7,30.19,ENE,59,0.0,1.0,85,0.00,,,0.00,VWS V14.01,2013-08-04 12:28:00,
2013-08-04 07:33:00,58.5,54.0,30.19,ENE,59,0.0,0.0,85,0.00,,,0.00,VWS V14.01,2013-08-04 12:33:00,
2013-08-04 07:39:00,58.9,54.4,30.19,ENE,59,0.0,1.0,85,0.00,,,0.00,VWS V14.01,2013-08-04 12:39:00,
2013-08-04 07:44:00,59.4,54.6,30.19,East,99,0.0,4.0,84,0.00,,,0.00,VWS V14.01,2013-08-04 12:44:00,
2013-08-04 07:48:00,60.1,54.9,30.19,East,101,0.0,2.0,83,0.00,,,0.00,VWS V14.01,2013-08-04 12:48:00,
2013-08-04 07:54:00,60.8,54.9,30.19,ESE,104,0.0,2.0,81,0.00,,,0.00,VWS V14.01,2013-08-04 12:54:00,
2013-08-04 07:59:00,61.4,55.2,30.20,ESE,105,1.0,1.0,80,0.00,,,0.00,VWS V14.01,2013-08-04 12:59:00,
2013-08-04 08:04:00,62.0,55.4,30.20,ESE,114,0.0,4.0,79,0.00,,,0.00,VWS V14.01,2013-08-04 13:04:00,
2013-08-04 08:09:00,62.5,55.6,30.21,ESE,114,0.0,4.0,78,0.00,,,0.00,VWS V14.01,2013-08-04 13:09:00,
2013-08-04 08:14:00,62.9,55.2,30.20,ESE,114,0.0,1.0,76,0.00,,,0.00,VWS V14.01,2013-08-04 13:14:00,
2013-08-04 08:19:00,63.2,55.2,30.21,ESE,114,0.0,2.0,75,0.00,,,0.00,VWS V14.01,2013-08-04 13:19:00,
2013-08-04 08:25:00,63.1,54.7,30.21,ESE,114,0.0,4.0,74,0.00,,,0.00,VWS V14.01,2013-08-04 13:25:00,
2013-08-04 08:30:00,63.2,54.4,30.21,SSE,155,0.0,1.0,73,0.00,,,0.00,VWS V14.01,2013-08-04 13:30:00,
2013-08-04 08:35:00,63.6,55.5,30.21,SE,146,1.0,4.0,75,0.00,,,0.00,VWS V14.01,2013-08-04 13:35:00,
2013-08-04 08:40:00,64.0,55.6,30.21,SE,146,0.0,4.0,74,0.00,,,0.00,VWS V14.01,2013-08-04 13:40:00,
2013-08-04 08:45:00,64.3,55.8,30.21,SE,146,1.0,1.0,74,0.00,,,0.00,VWS V14.01,2013-08-04 13:45:00,
2013-08-04 08:50:00,64.9,54.9,30.21,SSE,167,0.0,4.0,70,0.00,,,0.00,VWS V14.01,2013-08-04 13:50:00,
2013-08-04 08:55:00,65.3,56.4,30.22,SSW,211,0.0,4.0,73,0.00,,,0.00,VWS V14.01,2013-08-04 13:55:00,
2013-08-04 19:45:00,69.4,56.3,30.05,SE,135,1.0,6.0,63,0.00,,,0.00,VWS V14.01,2013-08-05 00:45:00,
2013-08-04 20:08:00,68.5,56.7,30.04,SE,134,2.0,2.0,66,0.00,,,0.00,VWS V14.01,2013-08-05 01:08:00,
2013-08-04 20:13:00,68.3,56.9,30.04,SE,134,0.0,2.0,67,0.00,,,0.00,VWS V14.01,2013-08-05 01:13:00,
2013-08-04 20:18:00,68.1,57.2,30.04,SE,134,0.0,2.0,68,0.00,,,0.00,VWS V14.01,2013-08-05 01:18:00,
2013-08-04 20:24:00,67.9,57.0,30.04,SE,134,1.0,2.0,68,0.00,,,0.00,VWS V14.01,2013-08-05 01:24:00,
2013-08-04 20:28:00,67.6,57.1,30.04,ESE,123,0.0,2.0,69,0.00,,,0.00,VWS V14.01,2013-08-05 01:28:00,
2013-08-04 20:34:00,67.4,57.3,30.04,ESE,121,0.0,4.0,70,0.00,,,0.00,VWS V14.01,2013-08-05 01:34:00,
2013-08-04 20:39:00,67.2,57.1,30.04,SE,146,1.0,6.0,70,0.00,,,0.00,VWS V14.01,2013-08-05 01:39:00,
2013-08-04 20:44:00,67.0,57.3,30.04,SE,135,2.0,4.0,71,0.00,,,0.00,VWS V14.01,2013-08-05 01:44:00,
2013-08-04 20:49:00,66.8,57.5,30.03,ESE,123,2.0,4.0,72,0.00,,,0.00,VWS V14.01,2013-08-05 01:49:00,
2013-08-04 20:54:00,66.5,57.6,30.03,ESE,119,1.0,5.0,73,0.00,,,0.00,VWS V14.01,2013-08-05 01:54:00,
2013-08-04 20:59:00,66.3,57.4,30.03,ESE,123,1.0,2.0,73,0.00,,,0.00,VWS V14.01,2013-08-05 01:59:00,
2013-08-04 21:04:00,66.1,57.6,30.03,ESE,123,0.0,4.0,74,0.00,,,0.00,VWS V14.01,2013-08-05 02:04:00,
2013-08-04 21:09:00,66.0,57.5,30.03,SE,126,0.0,4.0,74,0.00,,,0.00,VWS V14.01,2013-08-05 02:09:00,
2013-08-04 21:14:00,65.9,57.8,30.03,ESE,121,0.0,1.0,75,0.00,,,0.00,VWS V14.01,2013-08-05 02:14:00,
2013-08-04 21:19:00,65.9,57.8,30.03,East,101,0.0,2.0,75,0.00,,,0.00,VWS V14.01,2013-08-05 02:19:00,
2013-08-04 21:24:00,65.9,57.4,30.03,SW,236,0.0,2.0,74,0.00,,,0.00,VWS V14.01,2013-08-05 02:24:00,
2013-08-04 21:30:00,65.8,57.3,30.03,SSE,156,0.0,2.0,74,0.00,,,0.00,VWS V14.01,2013-08-05 02:30:00,
2013-08-04 21:35:00,65.8,57.7,30.03,SE,138,0.0,6.0,75,0.00,,,0.00,VWS V14.01,2013-08-05 02:35:00,
2013-08-04 21:40:00,65.7,57.6,30.03,ESE,123,0.0,6.0,75,0.00,,,0.00,VWS V14.01,2013-08-05 02:40:00,
2013-08-04 21:45:00,65.5,57.4,30.03,SE,130,0.0,5.0,75,0.00,,,0.00,VWS V14.01,2013-08-05 02:45:00,
2013-08-04 21:49:00,65.3,57.5,30.03,SE,131,0.0,5.0,76,0.00,,,0.00,VWS V14.01,2013-08-05 02:49:00,
2013-08-04 21:55:00,65.2,57.5,30.03,SE,131,0.0,5.0,76,0.00,,,0.00,VWS V14.01,2013-08-05 02:55:00,
2013-08-04 22:00:00,65.1,57.7,30.03,SE,131,0.0,1.0,77,0.00,,,0.00,VWS V14.01,2013-08-05 03:00:00,
2013-08-04 22:05:00,64.9,57.5,30.03,SE,131,1.0,2.0,77,0.00,,,0.00,VWS V14.01,2013-08-05 03:05:00,
2013-08-04 22:10:00,64.8,57.4,30.04,SE,131,0.0,2.0,77,0.00,,,0.00,VWS V14.01,2013-08-05 03:10:00,
2013-08-04 22:15:00,64.7,57.3,30.03,ENE,57,0.0,1.0,77,0.00,,,0.00,VWS V14.01,2013-08-05 03:15:00,
2013-08-04 22:20:00,64.6,57.6,30.03,East,97,0.0,1.0,78,0.00,,,0.00,VWS V14.01,2013-08-05 03:20:00,
2013-08-04 22:25:00,64.5,57.5,30.03,ESE,103,0.0,1.0,78,0.00,,,0.00,VWS V14.01,2013-08-05 03:25:00,
2013-08-04 22:30:00,64.4,57.4,30.03,ESE,123,1.0,4.0,78,0.00,,,0.00,VWS V14.01,2013-08-05 03:30:00,
2013-08-04 22:35:00,64.3,57.7,30.03,SE,127,0.0,4.0,79,0.00,,,0.00,VWS V14.01,2013-08-05 03:35:00,
2013-08-04 22:40:00,64.3,57.3,30.03,SSW,212,0.0,4.0,78,0.00,,,0.00,VWS V14.01,2013-08-05 03:40:00,
2013-08-04 22:45:00,64.2,57.2,30.03,South,173,0.0,4.0,78,0.00,,,0.00,VWS V14.01,2013-08-05 03:45:00,
2013-08-04 22:50:00,64.3,57.3,30.03,SSE,150,0.0,4.0,78,0.00,,,0.00,VWS V14.01,2013-08-05 03:50:00,
2013-08-04 22:55:00,64.3,57.3,30.02,South,190,0.0,4.0,78,0.00,,,0.00,VWS V14.01,2013-08-05 03:55:00,
2013-08-04 23:00:00,64.2,57.2,30.02,South,179,1.0,1.0,78,0.00,,,0.00,VWS V14.01,2013-08-05 04:00:00,
2013-08-04 23:01:00,64.2,57.2,30.02,South,179,0.0,1.0,78,0.00,,,0.00,VWS V14.01,2013-08-05 04:01:00,
2013-08-04 23:02:00,64.1,57.5,30.02,South,179,0.0,1.0,79,0.00,,,0.00,VWS V14.01,2013-08-05 04:02:00,
2013-08-04 23:05:00,64.1,57.5,30.02,SW,217,1.0,2.0,79,0.00,,,0.00,VWS V14.01,2013-08-05 04:05:00,
2013-08-04 23:10:00,64.0,57.4,30.02,SW,225,0.0,2.0,79,0.00,,,0.00,VWS V14.01,2013-08-05 04:10:00,
2013-08-04 23:15:00,63.8,57.2,30.02,SE,126,0.0,2.0,79,0.00,,,0.00,VWS V14.01,2013-08-05 04:15:00,
2013-08-04 23:20:00,63.6,57.3,30.01,SE,128,0.0,4.0,80,0.00,,,0.00,VWS V14.01,2013-08-05 04:20:00,
2013-08-04 23:25:00,63.3,57.4,30.01,SE,127,1.0,4.0,81,0.00,,,0.00,VWS V14.01,2013-08-05 04:25:00,
2013-08-04 23:30:00,63.0,57.1,30.01,SE,137,2.0,2.0,81,0.00,,,0.00,VWS V14.01,2013-08-05 04:30:00,
2013-08-04 23:35:00,62.9,57.0,30.01,SSE,168,0.0,4.0,81,0.00,,,0.00,VWS V14.01,2013-08-05 04:35:00,
2013-08-04 23:41:00,62.9,57.3,30.00,SSE,168,0.0,4.0,82,0.00,,,0.00,VWS V14.01,2013-08-05 04:41:00,
2013-08-04 23:46:00,62.7,57.1,30.00,SSE,168,0.0,2.0,82,0.00,,,0.00,VWS V14.01,2013-08-05 04:46:00,
2013-08-04 23:51:00,62.6,57.0,29.99,SSE,165,0.0,4.0,82,0.00,,,0.00,VWS V14.01,2013-08-05 04:51:00,
2013-08-04 23:56:00,62.6,57.0,29.99,SE,130,4.0,5.0,82,0.00,,,0.00,VWS V14.01,2013-08-05 04:56:00,